| time (UTC) | temp F | wind direction | speed MPH | gust MPH | rain 1hr in | rain 24hr in | rain mn in | humidity % | barometer mb |
| 20260905164544 | 74 | 134 | 0.0 | 3.0 | 0.17 | 0.24 | 0.18 | 93 | 1015.0 |
| 20260905163043 | 74 | 0 | 1.0 | 3.0 | 0.17 | 0.24 | 0.18 | 93 | 1015.1 |
| 20260905161541 | 73 | 67 | 1.0 | 3.0 | 0.17 | 0.24 | 0.18 | 93 | 1015.1 |
| 20260905160045 | 74 | 0 | 0.0 | 3.0 | 0.15 | 0.22 | 0.16 | 91 | 1015.1 |
| 20260905154555 | 74 | 0 | 0.0 | 0.0 | 0.00 | 0.14 | 0.01 | 91 | 1015.0 |
| 20260905153043 | 74 | 0 | 0.0 | 0.0 | 0.00 | 0.14 | 0.01 | 94 | 1014.9 |
| 20260905151547 | 74 | 0 | 0.0 | 0.0 | 0.00 | 0.14 | 0.01 | 94 | 1014.7 |
| 20260905150043 | 74 | 0 | 0.0 | 0.0 | 0.00 | 0.14 | 0.01 | 94 | 1014.6 |
| 20260905144543 | 74 | 0 | 0.0 | 0.0 | 0.00 | 0.14 | 0.01 | 95 | 1014.4 |
| 20260905143039 | 74 | 0 | 0.0 | 0.0 | 0.00 | 0.14 | 0.01 | 95 | 1014.4 |
| 20260905141546 | 74 | 0 | 0.0 | 0.0 | 0.00 | 0.14 | 0.01 | 95 | 1014.4 |
| 20260905140045 | 74 | 0 | 0.0 | 0.0 | 0.00 | 0.14 | 0.01 | 95 | 1014.2 |
| 20260905134547 | 74 | 0 | 0.0 | 0.0 | 0.00 | 0.24 | 0.01 | 96 | 1014.3 |
| 20260905133040 | 73 | 0 | 0.0 | 0.0 | 0.00 | 0.24 | 0.01 | 96 | 1014.4 |
| 20260905131545 | 73 | 0 | 0.0 | 0.0 | 0.00 | 0.24 | 0.01 | 96 | 1014.6 |
| 20260905130043 | 73 | 0 | 0.0 | 0.0 | 0.00 | 0.24 | 0.01 | 97 | 1014.5 |
| 20260905124542 | 72 | 0 | 0.0 | 0.0 | 0.00 | 0.31 | 0.01 | 96 | 1014.4 |
| 20260905123043 | 71 | 0 | 0.0 | 0.0 | 0.00 | 0.31 | 0.01 | 97 | 1014.2 |
| 20260905121542 | 71 | 0 | 0.0 | 0.0 | 0.00 | 0.31 | 0.01 | 96 | 1014.3 |
| 20260905120043 | 70 | 0 | 0.0 | 0.0 | 0.00 | 0.31 | 0.01 | 96 | 1014.1 |
| 20260905114543 | 70 | 0 | 0.0 | 0.0 | 0.00 | 0.31 | 0.01 | 96 | 1014.2 |
| 20260905113045 | 70 | 0 | 0.0 | 0.0 | 0.00 | 0.31 | 0.01 | 96 | 1013.9 |
| 20260905111542 | 70 | 0 | 0.0 | 0.0 | 0.00 | 0.31 | 0.01 | 96 | 1013.9 |
| 20260905110046 | 70 | 0 | 0.0 | 0.0 | 0.00 | 0.31 | 0.01 | 96 | 1014.0 |
| 20260905104545 | 70 | 0 | 0.0 | 0.0 | 0.00 | 0.31 | 0.01 | 96 | 1014.2 |
| 20260905103044 | 70 | 0 | 0.0 | 0.0 | 0.00 | 0.31 | 0.01 | 96 | 1014.5 |
| 20260905101538 | 70 | 0 | 0.0 | 0.0 | 0.00 | 0.31 | 0.01 | 96 | 1014.6 |
| 20260905100045 | 69 | 0 | 0.0 | 0.0 | 0.00 | 0.31 | 0.01 | 96 | 1015.2 |
| 20260905094542 | 69 | 0 | 0.0 | 0.0 | 0.00 | 0.31 | 0.01 | 96 | 1015.1 |
| 20260905093048 | 69 | 0 | 0.0 | 0.0 | 0.01 | 0.31 | 0.01 | 96 | 1014.6 |
| 20260905092017 | 68 | 0 | 0.0 | 0.0 | 0.01 | 0.31 | 0.01 | 96 | 1014.3 |
| 20260905090045 | 68 | 0 | 0.0 | 0.0 | 0.01 | 0.31 | 0.01 | 96 | 1013.9 |
| 20260905084542 | 68 | 0 | 0.0 | 0.0 | 0.00 | 0.30 | 0.00 | 96 | 1013.8 |
| 20260905083040 | 68 | 0 | 0.0 | 0.0 | 0.00 | 0.30 | 0.00 | 95 | 1013.8 |
| 20260905081538 | 68 | 0 | 0.0 | 0.0 | 0.00 | 0.30 | 0.00 | 95 | 1013.5 |
| 20260905080043 | 69 | 0 | 0.0 | 0.0 | 0.00 | 0.30 | 0.00 | 95 | 1013.0 |
| 20260905074540 | 69 | 0 | 0.0 | 0.0 | 0.00 | 0.30 | 0.00 | 95 | 1013.7 |
| 20260905073045 | 69 | 0 | 0.0 | 0.0 | 0.00 | 0.30 | 0.00 | 95 | 1013.5 |
| 20260905071544 | 69 | 0 | 0.0 | 0.0 | 0.00 | 0.30 | 0.00 | 95 | 1013.3 |
| 20260905070042 | 69 | 0 | 0.0 | 0.0 | 0.00 | 0.30 | 0.00 | 95 | 1013.5 |
| 20260905064544 | 69 | 0 | 0.0 | 0.0 | 0.00 | 0.30 | 0.00 | 95 | 1013.7 |
| 20260905063044 | 69 | 0 | 0.0 | 0.0 | 0.00 | 0.30 | 0.00 | 95 | 1013.6 |
| 20260905061547 | 69 | 0 | 0.0 | 0.0 | 0.00 | 0.30 | 0.00 | 95 | 1013.8 |
| 20260905060042 | 69 | 0 | 0.0 | 0.0 | 0.00 | 0.30 | 0.00 | 95 | 1014.1 |
| 20260905054541 | 70 | 0 | 0.0 | 0.0 | 0.00 | 0.30 | 0.00 | 95 | 1014.3 |
| 20260905053044 | 70 | 0 | 0.0 | 0.0 | 0.00 | 0.30 | 0.00 | 95 | 1014.6 |
| 20260905051544 | 70 | 0 | 0.0 | 0.0 | 0.00 | 0.30 | 0.00 | 95 | 1014.9 |
| 20260905050039 | 70 | 0 | 0.0 | 0.0 | 0.00 | 0.30 | 0.00 | 95 | 1014.9 |
| 20260905044545 | 70 | 0 | 0.0 | 0.0 | 0.00 | 0.30 | 0.00 | 95 | 1015.1 |
| 20260905043052 | 70 | 0 | 0.0 | 0.0 | 0.00 | 0.30 | 0.00 | 95 | 1015.0 |
| 20260905041542 | 70 | 0 | 0.0 | 0.0 | 0.00 | 0.30 | 0.00 | 95 | 1015.0 |
| 20260905040053 | 70 | 0 | 0.0 | 0.0 | 0.00 | 0.30 | 0.00 | 95 | 1015.2 |
| 20260905034545 | 69 | 0 | 0.0 | 0.0 | 0.00 | 0.30 | 0.30 | 94 | 1015.3 |
| 20260905033051 | 69 | 0 | 0.0 | 0.0 | 0.00 | 0.30 | 0.30 | 94 | 1015.1 |
| 20260905031551 | 70 | 0 | 0.0 | 0.0 | 0.00 | 0.30 | 0.30 | 94 | 1015.1 |
| 20260905030044 | 70 | 0 | 0.0 | 0.0 | 0.00 | 0.30 | 0.30 | 94 | 1015.1 |
| 20260905024540 | 70 | 0 | 0.0 | 0.0 | 0.00 | 0.30 | 0.30 | 94 | 1015.2 |
| 20260905023042 | 70 | 0 | 0.0 | 0.0 | 0.00 | 0.30 | 0.30 | 93 | 1015.3 |
| 20260905021539 | 71 | 0 | 0.0 | 0.0 | 0.00 | 0.30 | 0.30 | 93 | 1015.2 |
| 20260905020049 | 71 | 0 | 0.0 | 0.0 | 0.00 | 0.30 | 0.30 | 93 | 1015.1 |
| 20260905014543 | 71 | 0 | 0.0 | 0.0 | 0.00 | 0.30 | 0.30 | 93 | 1015.1 |
| 20260905013047 | 72 | 0 | 0.0 | 0.0 | 0.00 | 0.30 | 0.30 | 93 | 1015.2 |
| 20260905011619 | 72 | 0 | 0.0 | 0.0 | 0.00 | 0.30 | 0.30 | 93 | 1015.2 |
| 20260905010043 | 72 | 0 | 0.0 | 0.0 | 0.00 | 0.30 | 0.30 | 92 | 1015.2 |
| 20260905004540 | 72 | 0 | 0.0 | 0.0 | 0.00 | 0.30 | 0.30 | 92 | 1015.2 |
| 20260905003042 | 73 | 0 | 0.0 | 0.0 | 0.00 | 0.30 | 0.30 | 91 | 1015.1 |
| 20260905001555 | 73 | 0 | 0.0 | 0.0 | 0.00 | 0.30 | 0.30 | 91 | 1015.0 |
| 20260905000043 | 75 | 0 | 0.0 | 0.0 | 0.00 | 0.30 | 0.30 | 90 | 1015.0 |
| 20260904234539 | 76 | 0 | 0.0 | 0.0 | 0.00 | 0.34 | 0.30 | 90 | 1015.2 |
| 20260904233042 | 76 | 0 | 0.0 | 0.0 | 0.00 | 0.34 | 0.30 | 89 | 1015.1 |
| 20260904231546 | 77 | 0 | 0.0 | 0.0 | 0.00 | 0.34 | 0.30 | 90 | 1015.2 |
| 20260904230043 | 77 | 0 | 0.0 | 0.0 | 0.00 | 0.34 | 0.30 | 89 | 1015.3 |
| 20260904224546 | 77 | 0 | 0.0 | 0.0 | 0.00 | 0.50 | 0.30 | 89 | 1014.9 |
| 20260904223046 | 77 | 0 | 0.0 | 0.0 | 0.00 | 0.50 | 0.30 | 89 | 1014.4 |
| 20260904221541 | 77 | 0 | 0.0 | 0.0 | 0.00 | 0.50 | 0.30 | 89 | 1015.0 |
| 20260904220043 | 77 | 0 | 0.0 | 0.0 | 0.00 | 0.50 | 0.30 | 88 | 1014.9 |
| 20260904214542 | 77 | 0 | 0.0 | 1.0 | 0.00 | 0.52 | 0.30 | 88 | 1014.6 |
| 20260904213043 | 77 | 0 | 0.0 | 2.0 | 0.00 | 0.52 | 0.30 | 88 | 1014.3 |
| 20260904211542 | 77 | 0 | 0.0 | 0.0 | 0.00 | 0.52 | 0.30 | 88 | 1014.1 |
| 20260904210048 | 77 | 0 | 0.0 | 0.0 | 0.00 | 0.52 | 0.30 | 88 | 1013.9 |
| 20260904204542 | 77 | 0 | 0.0 | 3.0 | 0.00 | 0.52 | 0.30 | 87 | 1013.6 |
| 20260904203044 | 78 | 48 | 0.0 | 3.0 | 0.00 | 0.52 | 0.30 | 87 | 1013.2 |
| 20260904201540 | 78 | 145 | 0.0 | 2.0 | 0.00 | 0.52 | 0.30 | 87 | 1013.0 |
| 20260904200040 | 78 | 0 | 0.0 | 2.0 | 0.00 | 0.52 | 0.30 | 88 | 1013.5 |
| 20260904194604 | 77 | 0 | 0.0 | 3.0 | 0.00 | 0.52 | 0.30 | 89 | 1014.4 |
| 20260904193040 | 76 | 207 | 1.0 | 3.0 | 0.00 | 0.52 | 0.30 | 89 | 1014.9 |
| 20260904191543 | 75 | 192 | 2.0 | 6.0 | 0.00 | 0.52 | 0.30 | 91 | 1015.3 |
| 20260904190038 | 75 | 230 | 2.0 | 4.0 | 0.00 | 0.52 | 0.30 | 93 | 1015.2 |
| 20260904184544 | 74 | 176 | 1.0 | 4.0 | 0.01 | 0.52 | 0.30 | 95 | 1015.5 |
| 20260904183057 | 73 | 191 | 0.0 | 1.0 | 0.02 | 0.52 | 0.30 | 96 | 1015.2 |
| 20260904181558 | 71 | 341 | 0.0 | 1.0 | 0.04 | 0.52 | 0.30 | 95 | 1015.0 |
| 20260904180045 | 71 | 149 | 1.0 | 7.0 | 0.04 | 0.52 | 0.30 | 94 | 1014.9 |
| 20260904174542 | 72 | 208 | 2.0 | 6.0 | 0.03 | 0.52 | 0.29 | 94 | 1016.5 |
| 20260904173040 | 72 | 250 | 1.0 | 6.0 | 0.02 | 0.51 | 0.28 | 94 | 1017.7 |
| 20260904171542 | 73 | 293 | 2.0 | 8.0 | 0.01 | 0.49 | 0.26 | 95 | 1018.3 |
| 20260904170044 | 73 | 285 | 2.0 | 5.0 | 0.02 | 0.49 | 0.26 | 95 | 1018.0 |